^^
Station Historical Data
 
Daily Summary for April 25, 2019 Units:  English    Metric   Both
« Previous Day
Next Day »
Daily Weekly Monthly Yearly Custom
  Current: High: Low: Average:
Temperature: 51.3 °F 56.7 °F 51.3 °F 53.9 °F
Dew Point: 42.6 °F 42.9 °F 41.4 °F 42.2 °F
Humidity: 72% 72% 57% 65%
Wind Speed: 0.0mph 0.0mph 0.0mph 0mph
Wind Gust: 0.0mph 0.0mph - -
WindCalm - - North
Pressure: 29.92 in 29.93 in 29.89 in -
Precipitation: 0.00 in      
Historical Graphs
 
 
Tabular Data for April 25, 2019
Time Temperature Dew Point Pressure Wind Wind Speed Wind Gust Humidity Rainfall Rate (Hourly) solar Conditions
00:04 56.5 °F 41.5 °F 29.89 in Calm     57% 0.00 in 0.00 W/m2
00:09 56.6 °F 41.6 °F 29.89 in Calm     57% 0.00 in 0.00 W/m2
00:14 56.6 °F 41.6 °F 29.89 in Calm     57% 0.00 in 0.00 W/m2
00:19 56.5 °F 41.5 °F 29.89 in Calm     57% 0.00 in 0.00 W/m2
00:24 56.4 °F 41.4 °F 29.89 in Calm     57% 0.00 in 0.00 W/m2
00:30 56.6 °F 41.6 °F 29.89 in Calm     57% 0.00 in 0.00 W/m2
00:35 56.6 °F 41.6 °F 29.89 in Calm     57% 0.00 in 0.00 W/m2
00:39 56.7 °F 41.6 °F 29.90 in Calm     57% 0.00 in 0.00 W/m2
00:44 56.5 °F 41.9 °F 29.90 in Calm     58% 0.00 in 0.00 W/m2
00:49 56.0 °F 41.9 °F 29.90 in Calm     59% 0.00 in 0.00 W/m2
00:55 55.8 °F 42.1 °F 29.90 in Calm     60% 0.00 in 0.00 W/m2
01:00 55.5 °F 41.9 °F 29.90 in Calm     60% 0.00 in 0.00 W/m2
01:05 55.4 °F 42.2 °F 29.90 in Calm     61% 0.00 in 0.00 W/m2
01:09 55.4 °F 42.6 °F 29.90 in Calm     62% 0.00 in 0.00 W/m2
01:14 55.3 °F 42.5 °F 29.90 in Calm     62% 0.00 in 0.00 W/m2
01:19 55.1 °F 42.3 °F 29.90 in Calm     62% 0.00 in 0.00 W/m2
01:24 55.1 °F 42.3 °F 29.90 in Calm     62% 0.00 in 0.00 W/m2
01:30 55.0 °F 42.2 °F 29.90 in Calm     62% 0.00 in 0.00 W/m2
01:34 55.0 °F 42.2 °F 29.90 in Calm     62% 0.00 in 0.00 W/m2
01:39 55.0 °F 42.2 °F 29.90 in Calm     62% 0.00 in 0.00 W/m2
01:44 55.0 °F 42.2 °F 29.90 in Calm     62% 0.00 in 0.00 W/m2
01:49 55.0 °F 42.2 °F 29.90 in Calm     62% 0.00 in 0.00 W/m2
01:54 55.0 °F 42.6 °F 29.90 in Calm     63% 0.00 in 0.00 W/m2
02:00 54.9 °F 42.6 °F 29.90 in Calm     63% 0.00 in 0.00 W/m2
02:04 54.8 °F 42.9 °F 29.90 in Calm     64% 0.00 in 0.00 W/m2
02:10 54.8 °F 42.5 °F 29.90 in Calm     63% 0.00 in 0.00 W/m2
02:15 54.8 °F 42.5 °F 29.89 in Calm     63% 0.00 in 0.00 W/m2
02:19 54.7 °F 42.4 °F 29.89 in Calm     63% 0.00 in 0.00 W/m2
02:25 54.6 °F 41.9 °F 29.89 in Calm     62% 0.00 in 0.00 W/m2
02:29 54.7 °F 42.0 °F 29.90 in Calm     62% 0.00 in 0.00 W/m2
02:34 54.5 °F 42.2 °F 29.89 in Calm     63% 0.00 in 0.00 W/m2
02:39 54.3 °F 42.0 °F 29.89 in Calm     63% 0.00 in 0.00 W/m2
02:44 54.2 °F 42.3 °F 29.89 in Calm     64% 0.00 in 0.00 W/m2
02:50 54.2 °F 42.3 °F 29.89 in Calm     64% 0.00 in 0.00 W/m2
02:54 54.1 °F 42.6 °F 29.89 in Calm     65% 0.00 in 0.00 W/m2
02:59 53.9 °F 42.4 °F 29.90 in Calm     65% 0.00 in 0.00 W/m2
03:04 53.8 °F 42.3 °F 29.90 in Calm     65% 0.00 in 0.00 W/m2
03:09 53.8 °F 42.3 °F 29.90 in Calm     65% 0.00 in 0.00 W/m2
03:15 53.7 °F 42.2 °F 29.90 in Calm     65% 0.00 in 0.00 W/m2
03:19 53.7 °F 42.2 °F 29.90 in Calm     65% 0.00 in 0.00 W/m2
03:24 53.6 °F 42.1 °F 29.90 in Calm     65% 0.00 in 0.00 W/m2
03:29 53.3 °F 42.2 °F 29.90 in Calm     66% 0.00 in 0.00 W/m2
03:35 53.1 °F 42.1 °F 29.90 in Calm     66% 0.00 in 0.00 W/m2
03:39 53.0 °F 42.4 °F 29.90 in Calm     67% 0.00 in 0.00 W/m2
03:44 52.8 °F 42.2 °F 29.90 in Calm     67% 0.00 in 0.00 W/m2
03:49 52.7 °F 42.5 °F 29.90 in Calm     68% 0.00 in 0.00 W/m2
03:54 52.6 °F 42.4 °F 29.90 in Calm     68% 0.00 in 0.00 W/m2
04:00 52.4 °F 42.2 °F 29.90 in Calm     68% 0.00 in 0.00 W/m2
04:05 52.3 °F 42.5 °F 29.91 in Calm     69% 0.00 in 0.00 W/m2
04:10 52.3 °F 42.5 °F 29.91 in Calm     69% 0.00 in 0.00 W/m2
04:15 52.2 °F 42.4 °F 29.91 in Calm     69% 0.00 in 0.00 W/m2
04:20 52.3 °F 42.8 °F 29.91 in Calm     70% 0.00 in 0.00 W/m2
04:24 52.3 °F 42.5 °F 29.91 in Calm     69% 0.00 in 0.00 W/m2
04:29 52.3 °F 42.5 °F 29.91 in Calm     69% 0.00 in 0.00 W/m2
04:35 52.3 °F 42.5 °F 29.91 in Calm     69% 0.00 in 0.00 W/m2
04:39 52.3 °F 42.5 °F 29.91 in Calm     69% 0.00 in 0.00 W/m2
04:44 52.2 °F 42.4 °F 29.91 in Calm     69% 0.00 in 0.00 W/m2
04:49 52.1 °F 42.2 °F 29.92 in Calm     69% 0.00 in 0.00 W/m2
04:55 52.0 °F 42.2 °F 29.92 in Calm     69% 0.00 in 0.00 W/m2
04:59 52.0 °F 42.2 °F 29.92 in Calm     69% 0.00 in 0.00 W/m2
05:05 51.9 °F 42.1 °F 29.92 in Calm     69% 0.00 in 0.00 W/m2
05:09 51.9 °F 42.1 °F 29.92 in Calm     69% 0.00 in 0.00 W/m2
05:14 51.9 °F 42.1 °F 29.92 in Calm     69% 0.00 in 0.00 W/m2
05:20 51.9 °F 42.1 °F 29.92 in Calm     69% 0.00 in 0.00 W/m2
05:25 51.8 °F 42.0 °F 29.92 in Calm     69% 0.00 in 0.00 W/m2
05:29 51.6 °F 41.8 °F 29.92 in Calm     69% 0.00 in 0.00 W/m2
05:34 51.5 °F 42.0 °F 29.93 in Calm     70% 0.00 in 0.00 W/m2
05:39 51.3 °F 42.2 °F 29.92 in Calm     71% 0.00 in 0.00 W/m2
05:45 51.3 °F 42.2 °F 29.92 in Calm     71% 0.00 in 0.00 W/m2
05:49 51.3 °F 42.6 °F 29.92 in Calm     72% 0.00 in 0.00 W/m2
Chelsea Cove, Bountiful, UT
Compliments of Weather Underground - 1 mb